Location: Denham
(51.5667°N, 0.5000°W)
Time: 23:00:47
(UTC+00:00)

Daily predictions for brighter satellites

Satellite Brightness Start Highest point End
(mag) Time Altitude Azimuth Time Altitude Azimuth Time Altitude Azimuth
SMAP 3.6 16:27:19 10° SE 16:31:33 36° ENE 16:35:48 10° N
Cosmos 1656 4.4 16:26:40 10° S 16:31:44 36° ESE 16:36:52 10° NE
Cosmos 1867 4.0 16:29:12 10° NW 16:34:25 43° NE 16:39:36 10° ESE
NOSS 2-2 (C) 2.9 16:31:45 10° SSW 16:34:56 55° SE 16:37:53 10° NE
Cosmos 2228 3.1 16:31:32 10° S 16:35:40 53° E 16:39:49 10° NNE
YAOGAN 1 4.4 16:34:33 10° ENE 16:35:50 11° NE 16:37:08 10° NE
Landsat 7 4.5 16:32:57 10° SE 16:37:04 32° ENE 16:41:11 10° N
Cosmos 2297 Rocket 2.3 16:33:08 10° NNW 16:38:44 57° NE 16:44:19 10° SE
USA 290 2.9 16:35:58 10° N 16:39:00 34° ENE 16:42:00 10° SE
Cosmos 773 Rocket 4.0 16:37:01 10° NNW 16:42:13 66° ENE 16:47:25 10° SE
USA 215 3.5 16:36:12 10° ENE 16:42:37 58° N 16:49:00 10° W
Cosmos 2034 Rocket 4.4 16:37:24 10° SSW 16:43:42 72° WNW 16:50:06 10° N
ATLAS CENTAUR R/B 0.6 16:42:29 10° NW 16:45:46 88° NE 16:48:56 10° SE
Cosmos 1782 3.2 16:42:50 10° SSE 16:46:07 34° E 16:49:25 10° NNE
CZ-4C R/B 2.9 16:39:48 10° NW 16:46:18 64° NE 16:54:32 10° ESE
JB-3 4.2 16:43:38 10° NNE 16:47:19 81° WNW 16:50:57 10° SSW
Cosmos 1607 3.9 16:41:34 10° NW 16:47:47 71° NE 16:54:04 10° SE
Cosmos 1733 1.6 16:47:34 10° N 16:49:05 33° ENE 16:50:35 10° SSE
CZ-2D R/B 3.6 16:50:05 10° SE 16:52:48 27° ENE 16:55:31 10° N
Lacrosse 4 Rocket 2.0 16:50:50 10° SW 16:54:47 49° NW 16:58:42 10° NNE
Cosmos 2219 4.4 16:50:30 10° NNW 16:55:00 23° NE 16:59:28 10° E
ARIANE 5 R/B 2.7 16:52:44 10° SE 16:57:36 50° ENE 17:02:33 10° N
Meteor 1-27 4.4 16:51:51 10° SSW 16:57:41 88° WNW 17:03:29 10° NNE
Iridium 51 3.7 16:54:45 10° S 16:57:52 87° W 17:01:06 10° N
Cosmos 2266 Rocket 4.2 16:52:23 10° N 16:58:22 48° ENE 17:04:12 10° SE
Cosmos 1758 Rocket 3.4 16:54:02 10° N 16:58:22 71° ENE 17:02:38 10° SSE
Cosmos 1315 Rocket 3.0 16:55:18 10° SSW 16:59:07 68° WNW 17:02:57 10° N
Cosmos 2208 Rocket 4.0 16:56:44 10° NNW 17:01:56 90° WSW 17:07:07 10° SSE
Cosmos 2098 Rocket 3.3 16:58:35 10° SSE 17:02:33 49° E 17:07:14 10° NNE
Cosmos 2151 3.1 16:59:39 10° N 17:03:42 49° ENE 17:07:44 10° SSE
Cosmos 1743 2.3 17:01:12 10° N 17:04:26 55° ENE 17:07:37 10° SSE
Cosmos 1980 Rocket 3.9 17:05:19 10° ESE 17:07:24 12° E 17:08:01 12° E
SPOT 1/Viking Rocket 4.2 17:03:06 10° SE 17:07:40 32° ENE 17:12:16 10° N
Cosmos 1844 Rocket 4.4 17:05:58 10° N 17:09:04 15° NNE 17:10:59 13° NE
SL-08 ROCKET BODY 4.4 17:06:00 10° N 17:11:58 87° E 17:18:00 10° S
SL-16 R/B 2.6 17:09:18 10° NNE 17:15:35 84° WNW 17:21:47 10° SSW
Cosmos 2263 Rocket 2.8 17:11:44 10° NNW 17:16:56 35° NE 17:22:08 10° ESE
NOSS 3-2 (A) 3.2 17:13:47 10° SW 17:18:53 86° SE 17:24:04 15° NE
NOSS 3-2 (C) 3.7 17:14:19 10° S 17:19:02 41° ESE 17:23:02 17° ENE
IGS 5A 4.2 17:16:45 10° S 17:20:38 54° W 17:24:34 10° NNW
CORIOLIS 4.2 17:15:21 10° SSE 17:20:41 85° WSW 17:26:05 10° NNW
Cosmos 1626 Rocket 4.1 17:17:21 10° NNW 17:21:38 60° W 17:25:52 10° S
Cosmos 2084 4.5 17:18:30 10° W 17:22:23 36° NNW 17:25:23 15° NNE
Cosmos 783 Rocket 4.5 17:17:42 10° NNW 17:23:00 68° ENE 17:28:17 10° SE
GEOS 3 Rocket 3.7 17:19:36 15° NE 17:24:08 73° SE 17:29:31 10° SW
BREEZE M DEB (TANK) 3.6 17:23:01 10° SSW 17:24:42 17° SSE 17:25:20 15° SE
MOS 1 Rocket 3.5 17:19:57 10° SSE 17:24:46 60° ENE 17:29:53 10° N
Cosmos 1076 Rocket 4.2 17:21:30 10° N 17:25:19 30° ENE 17:29:09 10° SE
AQUARIUS 4.0 17:23:24 10° SSE 17:27:45 65° ENE 17:32:09 10° N
Cosmos 1933 3.7 17:25:08 10° SSE 17:28:40 36° E 17:30:45 20° NE
Cosmos 2084 Rocket 3.4 17:25:30 10° NW 17:29:45 84° SW 17:33:57 10° SE
Cosmos 2227 Rocket 2.2 17:24:19 10° NNW 17:29:57 62° NE 17:35:33 10° SE
SJ-12 3.6 17:26:52 10° SSE 17:30:38 79° ENE 17:34:26 10° NNW
BlueWalker 3 4.3 17:28:19 10° W 17:31:12 22° SW 17:34:04 10° SSE
Cosmos 1606 Rocket 4.0 17:28:03 10° SSE 17:32:10 40° E 17:35:23 16° NNE
Meteor 1-28 Rocket 3.6 17:28:58 10° N 17:32:15 52° WNW 17:35:30 10° SSW
Cosmos 1900 4.3 17:27:19 10° NW 17:32:25 86° NE 17:37:24 10° SE
Cosmos 2360 4.2 17:26:56 10° SSW 17:32:38 73° ESE 17:37:26 15° NE
Thor Agena Rocket 4.2 17:28:54 10° S 17:34:03 59° WSW 17:39:09 10° NNW
Cosmos 2369 Rocket 4.1 17:31:01 10° W 17:35:21 22° NW 17:39:43 10° NNE
PSLV R/B 4.2 17:36:04 23° E 17:37:33 29° ENE 17:41:04 10° N
CZ-2D R/B 3.8 17:34:20 10° SE 17:38:15 40° ENE 17:42:08 10° N
COSMO-SKYMED 1 3.9 17:39:14 20° ESE 17:39:14 20° ESE 17:41:27 10° SE
NOSS 2-2 (D) 2.8 17:35:36 10° SW 17:38:49 67° NW 17:40:03 32° NNE
Cosmos 1544 Rocket 4.1 17:36:55 10° SSW 17:41:16 61° WNW 17:45:40 10° N
BREEZE-M DEB (TANK) 3.6 17:39:09 10° W 17:42:16 71° S 17:48:33 17° E
Resurs 1-3 4.0 17:38:20 10° SE 17:42:17 36° ENE 17:46:15 10° N
Cosmos 1503 Rocket 4.0 17:37:13 10° S 17:42:23 64° ESE 17:46:10 18° NNE
IRS-1C 4.4 17:40:33 10° S 17:45:51 73° WSW 17:51:13 10° NNW
Cosmos 2278 Rocket 4.4 17:45:38 10° NNW 17:46:39 10° N 17:47:41 10° N
Cosmos 1697 Rocket 2.9 17:42:28 10° S 17:47:49 48° ESE 17:50:44 25° NE
Okean 1-7 Rocket 3.6 17:44:20 10° NNW 17:48:45 84° W 17:53:07 10° S
Lacrosse 5 rocket 1.8 17:45:16 10° W 17:48:50 42° NNW 17:49:58 32° NNE
Cosmos 1354 Rocket 4.1 17:45:33 10° S 17:50:40 54° ESE 17:53:34 25° NE
BREEZE-M DEB (TANK) 3.6 17:48:14 10° W 17:51:27 81° N 17:57:03 23° E
Cosmos 1461 2.7 17:49:25 10° SSW 17:53:15 60° SE 17:54:18 42° ENE
NOSS 2-2 (E) 3.0 17:50:31 10° SW 17:53:41 60° NW 17:54:24 43° NNE
SJ-6F 4.4 17:50:44 10° SSE 17:54:42 80° WSW 17:58:45 10° NNW
Spot 4 Rocket 4.0 17:51:04 10° SE 17:56:04 57° ENE 18:01:05 10° N
IRAS Rocket 4.3 17:52:01 10° SE 17:57:20 53° ENE 18:02:39 10° N
Cosmos 1726 Rocket 3.7 17:52:53 10° S 17:57:24 54° E 17:59:49 26° NNE
Cosmos 1655 Rocket 3.9 17:53:31 10° N 17:59:46 71° ENE 18:05:59 10° SSE
SKYMED 2 3.7 17:59:35 36° NE 18:00:59 51° E 18:05:14 10° S
Cosmos 1777 Rocket 4.0 17:56:13 10° SSW 18:01:29 82° WNW 18:05:19 19° NNE
Gbstr 26 Del rocket 3.7 17:58:52 10° SSW 18:02:22 30° SSE 18:02:38 29° SE
NOAA 15 4.5 18:01:19 10° SSE 18:06:35 71° ENE 18:11:52 10° NNW
Meteor 2-10 4.1 18:01:44 10° N 18:06:58 56° ENE 18:12:21 10° SSE
CENTAUR R/B 3.5 18:01:59 10° W 18:07:54 42° NNW 18:12:28 21° NE
YAOGAN 1 2.4 18:06:40 10° SSE 18:10:53 69° ENE 18:15:09 10° N
Cosmos 1656 4.5 18:09:45 10° SW 18:15:13 49° NW 18:19:20 18° NNE
Cosmos 2082 3.9 18:10:22 10° NNW 18:15:55 49° NE 18:17:04 43° E
USA 281 4.3 18:17:15 25° NE 18:17:15 25° NE 18:22:13 10° NNW
Cosmos 1867 4.4 18:12:51 10° NW 18:18:09 52° WSW 18:23:24 10° SSE
USA 238 DEB 3.9 18:13:35 10° S 18:19:11 39° ESE 18:19:57 38° ESE
USA 238 4.0 18:13:42 10° S 18:19:18 39° ESE 18:20:01 38° ESE
SJ-7 4.1 18:19:53 72° NNE 18:19:53 72° NNE 18:23:20 10° NNW
Resurs 01 Rocket 3.8 18:25:00 14° N 18:25:00 14° N 18:25:39 10° N
Cosmos 2297 Rocket 4.1 18:17:36 10° NW 18:22:28 30° WSW 18:27:20 10° SSW
Cosmos 1953 Rocket 3.5 18:18:37 10° NNW 18:23:04 86° W 18:27:32 10° S
USA 215 3.3 18:22:50 39° ENE 18:25:13 62° NNE 18:31:41 10° WNW
Aureole 1 Rocket 4.1 18:24:30 10° S 18:27:16 35° SSE 18:27:16 35° SSE
Lacrosse 4 Rocket 3.8 18:31:32 10° WNW 18:33:33 13° NNW 18:34:34 12° N
CZ-4C R/B 3.9 18:28:03 10° NW 18:34:44 47° WSW 18:42:51 10° SSE
USA 81 4.0 18:31:23 10° N 18:36:42 88° W 18:41:58 10° S
Cosmos 990 Rocket 4.0 18:33:06 10° SSW 18:38:14 78° WNW 18:39:47 46° NNE
Cosmos 2219 3.1 18:34:16 10° NNW 18:40:03 80° ENE 18:41:35 51° SE
NOAA 6 3.9 18:36:11 10° SSE 18:41:18 90° WSW 18:46:26 10° NNW
Cosmos 1980 Rocket 2.2 18:44:42 10° SSW 18:49:48 63° SE 18:49:48 63° SE
Cosmos 2058 Rocket 4.2 18:49:19 10° S 18:51:55 35° SSW 18:51:55 35° SSW
Nadezhda 2 Rocket 4.3 18:47:54 10° N 18:54:05 87° ENE 19:00:12 10° S
Cosmos 1844 Rocket 3.8 18:49:13 10° NNW 18:52:37 31° N 18:52:37 31° N
Cosmos 2263 Rocket 2.8 18:55:35 10° NW 19:01:07 55° WSW 19:04:59 20° S
Cosmos 1553 Rocket 3.8 19:00:50 10° S 19:06:49 82° SE 19:06:49 82° SE
NOSS 3-2 (C) 3.8 19:04:29 10° WSW 19:09:42 53° NNW 19:10:27 49° N
Meteor 2-11 Rocket 4.3 19:04:01 10° N 19:09:57 82° N 19:09:57 82° N
NOSS 3-2 (A) 4.4 19:05:16 10° W 19:10:23 36° NNW 19:11:26 34° N
Cosmos 2227 Rocket 4.1 19:08:54 10° NW 19:13:36 28° WSW 19:18:17 10° SSW
COSMO-SKYMED 1 4.2 19:15:34 28° SW 19:15:34 28° SW 19:17:44 10° SW
Lacrosse 5 rocket 4.0 19:23:00 10° WNW 19:23:33 13° WNW 19:23:33 13° WNW
Cosmos 1697 Rocket 3.8 19:26:42 10° WSW 19:31:55 38° NW 19:32:29 37° NNW
CENTAUR R/B 4.0 19:54:04 10° WNW 19:59:34 33° N 19:59:34 33° N
USA 281 4.5 20:04:07 32° NNW 20:04:07 32° NNW 20:07:22 10° NNW
USA 215 4.0 20:10:10 48° WNW 20:10:10 48° WNW 20:14:46 10° WNW
